TimeEDT,TemperatureF,Dew PointF,Humidity,Sea Level PressureIn,VisibilityMPH,Wind Direction,Wind SpeedMPH,Gust SpeedMPH,PrecipitationIn,Events,Conditions,WindDirDegrees,DateUTC
12:53 AM,57.0,57.0,100,30.14,0.5,ENE,4.6,-,N/A,Fog,Fog,60,2013-05-20 04:53:00
1:53 AM,57.0,57.0,100,30.12,0.5,Calm,Calm,-,0.00,Fog,Fog,0,2013-05-20 05:53:00
2:53 AM,57.0,55.9,96,30.09,0.5,East,3.5,-,N/A,Fog,Fog,80,2013-05-20 06:53:00
3:53 AM,57.0,57.0,100,30.08,0.5,Calm,Calm,-,0.01,Fog,Fog,0,2013-05-20 07:53:00
4:53 AM,57.9,57.0,97,30.08,0.5,Calm,Calm,-,N/A,Fog,Fog,0,2013-05-20 08:53:00
5:53 AM,57.9,57.0,97,30.07,0.2,Calm,Calm,-,N/A,Fog,Fog,0,2013-05-20 09:53:00
6:53 AM,57.9,57.0,97,30.09,0.2,Calm,Calm,-,N/A,Fog,Fog,0,2013-05-20 10:53:00
7:53 AM,59.0,57.9,96,30.10,0.5,Calm,Calm,-,N/A,Fog,Fog,0,2013-05-20 11:53:00
8:28 AM,60.8,60.8,100,30.12,1.2,Calm,Calm,-,N/A,,Overcast,0,2013-05-20 12:28:00
8:39 AM,60.8,59.0,94,30.12,3.0,Calm,Calm,-,N/A,,Overcast,0,2013-05-20 12:39:00
8:53 AM,61.0,60.1,97,30.09,5.0,SSE,3.5,-,N/A,,Overcast,160,2013-05-20 12:53:00
9:05 AM,62.6,60.8,94,30.10,6.0,Variable,3.5,-,N/A,,Overcast,0,2013-05-20 13:05:00
9:24 AM,62.6,60.8,94,30.11,5.0,SW,3.5,-,N/A,,Overcast,230,2013-05-20 13:24:00
10:12 AM,66.2,62.6,88,30.10,5.0,West,4.6,-,N/A,,Overcast,260,2013-05-20 14:12:00
10:53 AM,68.0,64.0,87,30.08,6.0,West,4.6,-,N/A,,Mostly Cloudy,280,2013-05-20 14:53:00
11:08 AM,69.8,64.4,83,30.09,7.0,Calm,Calm,-,N/A,,Mostly Cloudy,0,2013-05-20 15:08:00
11:48 AM,71.6,64.4,78,30.08,8.0,West,3.5,-,N/A,,Overcast,270,2013-05-20 15:48:00
11:53 AM,70.0,64.9,84,30.06,8.0,SSW,3.5,-,N/A,,Overcast,200,2013-05-20 15:53:00
12:53 PM,71.1,66.0,84,30.04,6.0,Calm,Calm,-,N/A,,Haze,0,2013-05-20 16:53:00
1:27 PM,73.4,66.2,78,30.04,9.0,WSW,5.8,-,N/A,,Overcast,240,2013-05-20 17:27:00
1:48 PM,73.4,64.4,73,30.04,9.0,SW,4.6,-,N/A,,Overcast,220,2013-05-20 17:48:00
1:53 PM,73.9,64.9,73,30.02,9.0,SW,4.6,-,N/A,,Overcast,230,2013-05-20 17:53:00
2:53 PM,75.0,66.0,73,30.01,7.0,WSW,4.6,-,N/A,,Overcast,250,2013-05-20 18:53:00
3:53 PM,75.9,64.9,69,30.00,9.0,WSW,5.8,-,N/A,,Overcast,240,2013-05-20 19:53:00
4:53 PM,77.0,64.9,66,29.97,10.0,SSW,5.8,-,N/A,,Overcast,210,2013-05-20 20:53:00
5:53 PM,78.1,64.0,62,29.97,10.0,WSW,6.9,-,N/A,,Scattered Clouds,250,2013-05-20 21:53:00
6:53 PM,77.0,64.9,66,29.97,10.0,West,4.6,-,N/A,,Partly Cloudy,280,2013-05-20 22:53:00
7:53 PM,75.9,64.0,67,29.96,10.0,Calm,Calm,-,N/A,,Clear,0,2013-05-20 23:53:00
8:53 PM,73.0,64.0,73,29.97,10.0,Calm,Calm,-,N/A,,Clear,0,2013-05-21 00:53:00
10:53 PM,69.1,63.0,81,29.98,10.0,Calm,Calm,-,N/A,,Clear,0,2013-05-21 02:53:00
11:53 PM,66.0,63.0,90,29.96,8.0,Calm,Calm,-,N/A,,Clear,0,2013-05-21 03:53:00